This is the latest recevied weather packets stored in our database for station/object IU3OVK-13. If no packets are shown the sender has not sent any weather packets the latest 10 day(s).
| Time | Temp. | Humidity | Pressure | Rain* | Wind** | Luminosity | Snow |
|---|---|---|---|---|---|---|---|
| 1788464081 | 24.44° C | 99% | 1012 hPa | - | - | - | - |
| 1788462840 | 24.44° C | 99% | 1013 hPa | - | - | - | - |
| 1788462220 | 25° C | 99% | 1012.6 hPa | - | - | - | - |
| 1788461600 | 25° C | 99% | 1012.6 hPa | - | - | - | - |
| 1788460980 | 25.56° C | 99% | 1012.3 hPa | - | - | - | - |
| 1788460360 | 26.11° C | 99% | 1011.6 hPa | - | - | - | - |
| 1788459119 | 26.11° C | 99% | 1012.2 hPa | - | - | - | - |
| 1788458499 | 26.67° C | 99% | 1011.7 hPa | - | - | - | - |
| 1788457259 | 27.22° C | 99% | 1011.6 hPa | - | - | - | - |
| 1788456638 | 27.78° C | 99% | 1011.8 hPa | - | - | - | - |
| 1788456018 | 27.78° C | 99% | 1011.5 hPa | - | - | - | - |
| 1788455398 | 28.33° C | 99% | 1011.1 hPa | - | - | - | - |
| 1788454778 | 28.33° C | 99% | 1011 hPa | - | - | - | - |
| 1788454158 | 28.33° C | 99% | 1011 hPa | - | - | - | - |
| 1788453537 | 28.89° C | 99% | 1011 hPa | - | - | - | - |
| 1788452917 | 28.89° C | 99% | 1010.8 hPa | - | - | - | - |
| 1788452297 | 29.44° C | 99% | 1010.6 hPa | - | - | - | - |
| 1788451677 | 29.44° C | 99% | 1010.6 hPa | - | - | - | - |
| 1788451057 | 30° C | 99% | 1010.2 hPa | - | - | - | - |
| 1788450436 | 29.44° C | 99% | 1010.6 hPa | - | - | - | - |
| 1788449816 | 30° C | 99% | 1009.6 hPa | - | - | - | - |
| 1788449196 | 30.56° C | 99% | 1008.2 hPa | - | - | - | - |
| 1788448609 | 30.56° C | 99% | 1009.2 hPa | - | - | - | - |
| 1788448576 | 30.56° C | 99% | 1009.2 hPa | - | - | - | - |
| 1788447955 | 30° C | 99% | 1009.2 hPa | - | - | - | - |
* Rain since midnight (hover to see other rain measurements)
** Current wind speed in m/s (hover to see current wind gust speed)